Preview of NWS' New Version of Forecast
This preview is not operational and should not be used for support decisions.

Regional Weather Roundup (RWR)

Issued by National Weather Service (NWS)

                            
000
ASUS46 KSEW 190010
RWRWA 

WASHINGTON REGIONAL WEATHER ROUNDUP
NATIONAL WEATHER SERVICE SEATTLE WA
500 PM PDT THU APR 18 2019

NOTE:"FAIR" INDICATES FEW OR NO CLOUDS BELOW 12,000 FEET WITH NO 
SIGNIFICANT WEATHER AND/OR OBSTRUCTIONS TO VISIBILITY.

WAZ507-509-555>559-190100-
SEATTLE, TACOMA, EVERETT, AND VICINITY
  
CITY           SKY/WX    TMP DP  RH WIND       PRES   REMARKS
EVERETT        CLOUDY    61  46  57 S15       30.09F                  
6HR MIN TEMP:  53; 6HR MAX TEMP:  62; 6HR PCP: TRACE;                

BOEING FIELD   PTSUNNY   63  48  58 S8        30.10F                  
6HR MIN TEMP:  58; 6HR MAX TEMP:  64;                                

RENTON         CLOUDY    64  49  57 S3        30.10F                  
6HR MIN TEMP:  58; 6HR MAX TEMP:  65;                                

SEATAC AIRPORT CLOUDY    61  48  62 S10       30.10F                  
6HR MIN TEMP:  57; 6HR MAX TEMP:  61;                                

JBLM-MCCHORD   PTSUNNY   64  57  79 CALM      30.11F                  
6HR MIN TEMP:  56; 6HR MAX TEMP:  64;                                

PUYALLUP       PTSUNNY   66  52  59 CALM      30.11F                  
BREMERTON      CLOUDY    59  52  77 SW13      30.11F                  
6HR MIN TEMP:  54; 6HR MAX TEMP:  60;                                

JBLM-FT LEWIS  PTSUNNY   65  57  75 W7        30.10F                  
6HR MIN TEMP:  56; 6HR MAX TEMP:  66; 6HR PCP: TRACE;                

TACOMA NARROWS CLOUDY    62  49  62 VRB6      30.12F                  
6HR MIN TEMP:  55; 6HR MAX TEMP:  62; 6HR PCP: TRACE;                

$$
 
WAZ001-503-506-510-514-515-190100-
NORTH INTERIOR
  
CITY           SKY/WX    TMP DP  RH WIND       PRES   REMARKS
BELLINGHAM     RAIN      54  51  90 CALM      30.11R FOG              
6HR MIN TEMP:  53; 6HR MAX TEMP:  58; 6HR PCP:  0.10;                

FRIDAY HARBOR  LGT RAIN  54  51  90 CALM      30.10F FOG              
6HR MIN TEMP:  53; 6HR MAX TEMP:  55; 6HR PCP: TRACE;                

EASTSOUND      RAIN      54  54 100 S8        30.08F                  
PORT ANGELES   CLOUDY    53  51  93 W3        30.11S                  
6HR MIN TEMP:  50; 6HR MAX TEMP:  54; 6HR PCP:  0.14;                

EDIZ HOOK      CLOUDY    52  50  93 W3        30.11S                  
6HR MIN TEMP:  49; 6HR MAX TEMP:  53; 6HR PCP:  0.06;                

PORT TOWNSEND  PTSUNNY   55  50  82 NW7       30.08S                  
NAS WHIDBEY    NOT AVBL                                               
ARLINGTON      CLOUDY    61  52  72 VRB5      30.09F                  
6HR MIN TEMP:  54; 6HR MAX TEMP:  61; 6HR PCP:  0.04;                

BURLINGTON     CLOUDY    61  50  67 SE5       30.09F                  
$$
 
WAZ020-022-039-040-504-511-512-190100-
SOUTHWEST INTERIOR
  
CITY           SKY/WX    TMP DP  RH WIND       PRES   REMARKS
SHELTON        LGT RAIN  58  52  80 SW10      30.11F                  
6HR MIN TEMP:  56; 6HR MAX TEMP:  61; 6HR PCP: TRACE;                

OLYMPIA        PTSUNNY   68  50  52 SW10      30.10F                  
6HR MIN TEMP:  55; 6HR MAX TEMP:  68;                                

CHEHALIS       FAIR      73  55  53 VRB6      30.10F                  
KELSO          MOSUNNY   73  49  42 S5        30.09F                  
6HR MIN TEMP:  58; 6HR MAX TEMP:  74;                                

VANCOUVER      PTSUNNY   75  47  36 CALM      30.08F                  
6HR MIN TEMP:  58; 6HR MAX TEMP:  76; 6HR PCP: TRACE;                

SCAPPOOSE, OR  MOSUNNY   75  53  46 SE7       30.08F                  
6HR MIN TEMP:  61; 6HR MAX TEMP:  76;                                

PORTLAND, OR   PTSUNNY   75  47  36 NE3       30.09F                  
6HR MIN TEMP:  60; 6HR MAX TEMP:  75;                                

$$
 
WAZ021-516-517-190100-
WASHINGTON COAST
  
CITY           SKY/WX    TMP DP  RH WIND       PRES   REMARKS
FORKS          LGT RAIN  52  51  97 VRB7      30.12F FOG              
6HR MIN TEMP:  51; 6HR MAX TEMP:  53; 6HR PCP:  0.18;                

HOQUIAM        LGT RAIN  53  53 100 W5        30.14F FOG              
6HR MIN TEMP:  53; 6HR MAX TEMP:  57; 6HR PCP:  0.07;                

ASTORIA, OR    CLOUDY    59  51  75 W10       30.14F                  
6HR MIN TEMP:  56; 6HR MAX TEMP:  63;                                

$$
 
WAZ019-023-024-040-567>569-190100-
CASCADE MOUNTAINS AND COLUMBIA GORGE
  
CITY           SKY/WX    TMP DP  RH WIND       PRES   REMARKS
STAMPEDE PASS  CLOUDY    54  43  66 CALM      30.16F                  
6HR MIN TEMP:  50; 6HR MAX TEMP:  55;                                

TROUTDALE, OR  PTSUNNY   76  50  40 E3        30.09F                  
6HR MIN TEMP:  61; 6HR MAX TEMP:  76;                                

HOOD RIVER, OR PTCLDY    77  46  33 MISG      30.06F                  
THE DALLES, OR SUNNY     80  51  36 N7        30.04F                  
6HR MIN TEMP:  61; 6HR MAX TEMP:  80;                                

$$

WAZ026-027-041>044-520-521-190100-
EAST SLOPES
  
CITY           SKY/WX    TMP DP  RH WIND       PRES   REMARKS
OMAK           CLOUDY    66  47  50 S8        30.06F                  
6HR MIN TEMP:  53; 6HR MAX TEMP:  67;                                

WENATCHEE      CLOUDY    67  45  45 SW3       30.07F                  
6HR MIN TEMP:  55; 6HR MAX TEMP:  67;                                

ELLENSBURG     PTSUNNY   70  47  43 VRB3      30.08F                  
6HR MIN TEMP:  54; 6HR MAX TEMP:  73; 6HR PCP: TRACE;                

YAKIMA         MOSUNNY   75  47  36 VRB3      30.05F                  
6HR MIN TEMP:  62; 6HR MAX TEMP:  76; 6HR PCP: TRACE;                

SUNNYSIDE ARPT CLEAR     78  49  36 CALM      30.04F                  
6HR MIN TEMP:  62; 6HR MAX TEMP:  79;                                

YAKIMA TC      FAIR      73  44  35 SW5       30.05F                  
6HR MIN TEMP:  58; 6HR MAX TEMP:  74;                                

$$

WAZ028-034-035-190100-
COLUMBIA BASIN
  
CITY           SKY/WX    TMP DP  RH WIND       PRES   REMARKS
EPHRATA        MOSUNNY   73  47  39 S13       30.06F                  
6HR MIN TEMP:  55; 6HR MAX TEMP:  73; 6HR PCP: TRACE;                

MOSES LAKE     SUNNY     74  45  35 S12       30.08F                  
6HR MIN TEMP:  60; 6HR MAX TEMP:  74;                                

PASCO          SUNNY     83  45  26 SW9       30.05F                  
6HR MIN TEMP:  69; 6HR MAX TEMP:  83;                                

RICHLAND ARPT  CLEAR     81  47  30 S12G17    30.05F                  
6HR MIN TEMP:  66; 6HR MAX TEMP:  82;                                

HERMISTON, OR  SUNNY     81  49  32 CALM      30.05F                  
6HR MIN TEMP:  67; 6HR MAX TEMP:  81;                                

$$

WAZ036>038-190100-
NORTHEAST WASHINGTON
  
CITY           SKY/WX    TMP DP  RH WIND       PRES   REMARKS
SPOKANE GEIGER PTSUNNY   65  42  43 S13       30.13F                  
6HR MIN TEMP:  54; 6HR MAX TEMP:  66;                                

SPOKANE FELTS  MOSUNNY   69  43  38 SW10      30.12F                  
6HR MIN TEMP:  57; 6HR MAX TEMP:  69;                                

FAIRCHILD AFB  PTSUNNY   65  45  48 S8        30.12F                  
6HR MIN TEMP:  52; 6HR MAX TEMP:  65; 6HR PCP: TRACE;                

COEURDALENE,ID MOSUNNY   64  43  46 S5        30.14F                  
6HR MIN TEMP:  54; 6HR MAX TEMP:  64;                                

DEER PARK      PTSUNNY   63  41  44 MISG      30.13F                  
6HR MIN TEMP:  53; 6HR MAX TEMP:  63;                                

$$

WAZ029>033-190100-
SOUTHEAST WASHINGTON
  
CITY           SKY/WX    TMP DP  RH WIND       PRES   REMARKS
PULLMAN        MOSUNNY   67  47  48 W8        30.16F                  
6HR MIN TEMP:  58; 6HR MAX TEMP:  68;                                

LEWISTON, ID   MOSUNNY   71  45  39 W3        30.11F                  
6HR MIN TEMP:  57; 6HR MAX TEMP:  75;                                

WALLA WALLA    SUNNY     76  46  34 E3        30.09F                  
6HR MIN TEMP:  69; 6HR MAX TEMP:  76;                                

PENDLETON, OR  SUNNY     74  51  44 NW5       30.09F                  
6HR MIN TEMP:  65; 6HR MAX TEMP:  76;                                

$$